Total_Precipitation_Accumulation
0.21 0.21 0.22 0.29 0.29 0.21 0.10 0.03 0.01 0.01 0.01 0.02 0.05 0.08 0.09 0.09 0.11 0.17 0.15 0.12 0.15 0.18 0.23 0.41 0.58 0.69 0.77 0.79 0.80 0.75 0.67 0.70 0.74 0.78 0.83 0.92 0.95 0.94 0.97 0.89 0.89 0.93 1.01 1.02 1.02 0.97 0.91 0.82 0.81
0.23 0.27 0.34 0.39 0.25 0.14 0.07 0.03 0.01 0.01 0.02 0.03 0.06 0.09 0.08 0.07 0.06 0.10 0.15 0.13 0.13 0.14 0.20 0.32 0.54 0.67 0.77 0.80 0.80 0.78 0.76 0.75 0.78 0.78 0.84 0.93 0.99 1.03 1.00 0.89 0.89 0.96 1.03 1.05 1.01 0.95 0.90 0.84 0.77
0.30 0.40 0.46 0.41 0.22 0.09 0.06 0.03 0.02 0.02 0.03 0.04 0.07 0.10 0.11 0.10 0.08 0.11 0.13 0.10 0.14 0.16 0.21 0.35 0.59 0.71 0.78 0.82 0.81 0.81 0.84 0.83 0.83 0.81 0.87 1.01 1.04 1.03 0.95 0.87 0.84 0.89 1.02 1.09 1.04 0.91 0.85 0.82 0.77
0.39 0.57 0.58 0.39 0.17 0.08 0.06 0.04 0.03 0.03 0.04 0.06 0.07 0.09 0.11 0.11 0.10 0.13 0.13 0.11 0.17 0.21 0.25 0.40 0.62 0.76 0.82 0.86 0.86 0.85 0.86 0.85 0.89 0.91 0.95 1.04 1.04 1.05 0.99 0.91 0.84 0.82 0.88 0.96 0.97 0.89 0.85 0.82 0.73
0.47 0.60 0.58 0.34 0.14 0.09 0.06 0.04 0.03 0.04 0.05 0.06 0.08 0.09 0.11 0.13 0.12 0.13 0.13 0.14 0.16 0.24 0.32 0.46 0.73 0.85 0.90 0.93 0.91 0.89 0.89 0.92 0.97 1.02 1.05 1.08 1.04 1.04 1.01 0.96 0.89 0.82 0.78 0.83 0.90 0.89 0.87 0.84 0.74
0.62 0.62 0.46 0.26 0.14 0.09 0.06 0.05 0.05 0.05 0.05 0.06 0.08 0.09 0.14 0.16 0.16 0.16 0.18 0.20 0.19 0.26 0.38 0.52 0.82 0.97 1.03 1.02 1.01 0.98 0.99 1.05 1.09 1.10 1.14 1.15 1.07 1.00 0.97 0.98 0.90 0.83 0.75 0.72 0.76 0.80 0.80 0.80 0.74
0.64 0.58 0.34 0.19 0.16 0.11 0.07 0.05 0.06 0.06 0.06 0.08 0.08 0.11 0.17 0.20 0.18 0.20 0.25 0.27 0.30 0.38 0.48 0.60 0.82 1.00 1.14 1.12 1.08 1.11 1.11 1.13 1.20 1.21 1.18 1.14 1.07 1.03 1.02 0.98 0.90 0.85 0.80 0.73 0.70 0.71 0.70 0.67 0.66
0.67 0.67 0.39 0.20 0.16 0.13 0.08 0.07 0.08 0.08 0.08 0.09 0.09 0.12 0.16 0.18 0.19 0.23 0.37 0.41 0.44 0.54 0.67 0.76 0.88 1.00 1.11 1.18 1.18 1.16 1.18 1.21 1.26 1.28 1.22 1.12 1.09 1.08 1.04 0.93 0.89 0.89 0.89 0.82 0.75 0.71 0.68 0.62 0.57
0.75 0.82 0.44 0.19 0.15 0.14 0.11 0.11 0.10 0.10 0.11 0.11 0.11 0.12 0.15 0.18 0.22 0.29 0.42 0.56 0.62 0.67 0.81 0.93 1.01 1.08 1.17 1.23 1.22 1.35 1.42 1.44 1.44 1.37 1.31 1.28 1.23 1.16 1.02 0.87 0.85 0.93 0.94 0.85 0.78 0.75 0.70 0.66 0.55
0.79 0.68 0.34 0.14 0.12 0.14 0.15 0.15 0.14 0.15 0.15 0.14 0.14 0.13 0.19 0.26 0.30 0.35 0.43 0.52 0.66 0.70 0.81 0.96 1.05 1.12 1.25 1.33 1.42 1.55 1.62 1.62 1.56 1.35 1.28 1.30 1.20 1.13 1.00 0.92 0.89 0.92 0.93 0.89 0.84 0.81 0.80 0.75 0.59
0.62 0.47 0.25 0.15 0.12 0.16 0.18 0.17 0.18 0.21 0.21 0.19 0.23 0.22 0.27 0.37 0.42 0.49 0.53 0.55 0.57 0.66 0.80 0.92 1.09 1.26 1.36 1.41 1.53 1.59 1.61 1.61 1.60 1.49 1.35 1.29 1.31 1.25 1.17 1.07 1.06 1.06 0.99 0.98 0.96 0.97 0.87 0.76 0.67
0.47 0.34 0.26 0.21 0.16 0.19 0.21 0.21 0.21 0.24 0.24 0.23 0.28 0.33 0.37 0.44 0.50 0.54 0.63 0.64 0.60 0.68 0.81 0.95 1.15 1.32 1.41 1.43 1.53 1.57 1.50 1.44 1.41 1.38 1.41 1.40 1.37 1.28 1.20 1.15 1.13 1.16 1.09 1.03 1.00 0.94 0.86 0.76 0.68
0.43 0.29 0.23 0.24 0.20 0.21 0.23 0.23 0.22 0.21 0.20 0.24 0.25 0.31 0.39 0.43 0.54 0.62 0.75 0.84 0.75 0.72 0.83 1.02 1.22 1.35 1.48 1.54 1.60 1.59 1.49 1.39 1.40 1.36 1.38 1.36 1.25 1.17 1.07 1.03 1.05 0.98 0.94 0.91 0.90 0.89 0.85 0.76 0.71
0.38 0.28 0.23 0.25 0.26 0.24 0.27 0.23 0.21 0.20 0.18 0.22 0.27 0.29 0.35 0.42 0.52 0.66 0.83 0.87 0.82 0.77 0.89 1.10 1.30 1.45 1.60 1.58 1.61 1.59 1.54 1.52 1.58 1.52 1.34 1.31 1.24 1.16 1.10 1.01 0.99 0.93 0.84 0.80 0.80 0.78 0.80 0.77 0.70
0.39 0.39 0.32 0.25 0.25 0.26 0.34 0.34 0.20 0.17 0.21 0.25 0.28 0.29 0.31 0.38 0.50 0.61 0.75 0.82 0.83 0.88 1.02 1.16 1.33 1.56 1.72 1.69 1.67 1.66 1.65 1.63 1.60 1.64 1.60 1.44 1.32 1.25 1.21 1.11 1.00 0.97 0.94 0.90 0.87 0.84 0.83 0.78 0.72
0.59 0.66 0.55 0.30 0.23 0.27 0.46 0.46 0.19 0.16 0.23 0.26 0.28 0.32 0.34 0.36 0.45 0.58 0.71 0.87 0.93 1.03 1.17 1.28 1.44 1.64 1.78 1.83 1.83 1.77 1.73 1.77 1.69 1.68 1.76 1.76 1.57 1.39 1.31 1.23 1.13 1.09 1.11 1.09 1.03 0.93 0.88 0.81 0.72
0.83 0.75 0.50 0.30 0.23 0.31 0.48 0.42 0.20 0.18 0.23 0.25 0.27 0.32 0.33 0.37 0.43 0.53 0.64 0.78 0.93 1.07 1.25 1.37 1.51 1.69 1.88 1.98 1.99 1.96 1.85 1.83 1.83 1.79 1.78 1.84 1.88 1.68 1.47 1.35 1.31 1.32 1.33 1.26 1.17 1.08 0.96 0.88 0.80
0.71 0.53 0.38 0.29 0.24 0.31 0.39 0.31 0.20 0.20 0.23 0.22 0.25 0.32 0.30 0.36 0.41 0.49 0.61 0.74 0.90 1.04 1.25 1.45 1.60 1.77 1.96 2.14 2.18 2.18 2.09 1.93 1.88 1.86 1.77 1.72 1.81 1.85 1.72 1.55 1.47 1.48 1.49 1.44 1.31 1.19 1.11 1.02 0.98
0.51 0.51 0.40 0.25 0.21 0.37 0.36 0.26 0.22 0.21 0.23 0.25 0.26 0.33 0.33 0.37 0.44 0.50 0.64 0.78 0.91 1.03 1.20 1.39 1.53 1.69 1.91 2.08 2.15 2.13 2.08 1.94 1.87 1.82 1.76 1.75 1.78 1.83 1.82 1.64 1.57 1.46 1.42 1.38 1.34 1.29 1.27 1.20 1.18
0.58 0.66 0.51 0.36 0.27 0.40 0.39 0.29 0.23 0.22 0.24 0.27 0.27 0.35 0.35 0.36 0.44 0.49 0.59 0.76 0.84 0.93 1.07 1.29 1.49 1.62 1.80 1.96 1.98 2.08 2.06 1.99 1.89 1.82 1.79 1.73 1.73 1.83 1.91 1.81 1.70 1.64 1.55 1.50 1.50 1.47 1.43 1.37 1.27
0.63 0.58 0.51 0.48 0.42 0.46 0.51 0.44 0.25 0.21 0.20 0.24 0.26 0.31 0.33 0.38 0.41 0.43 0.54 0.69 0.81 0.87 0.98 1.16 1.41 1.58 1.69 1.92 2.19 2.38 2.44 2.28 2.13 1.96 1.82 1.71 1.69 1.72 1.85 1.92 1.87 1.83 1.79 1.70 1.57 1.54 1.53 1.54 1.42
0.69 0.38 0.43 0.53 0.79 0.84 0.68 0.79 0.31 0.21 0.18 0.22 0.26 0.28 0.29 0.34 0.36 0.39 0.48 0.62 0.74 0.83 0.99 1.15 1.25 1.49 1.71 1.85 2.12 2.37 2.47 2.30 1.99 1.87 1.84 1.79 1.73 1.73 1.76 1.83 1.86 1.84 1.80 1.73 1.61 1.53 1.47 1.55 1.59
0.57 0.40 0.47 0.60 0.93 1.08 0.72 0.84 0.38 0.23 0.23 0.22 0.26 0.28 0.28 0.32 0.36 0.37 0.43 0.54 0.66 0.83 0.99 1.16 1.25 1.42 1.69 1.87 1.98 2.26 2.43 2.33 2.16 2.05 1.93 1.82 1.79 1.78 1.73 1.74 1.79 1.84 1.81 1.77 1.70 1.64 1.64 1.64 1.62
0.55 0.66 0.77 0.91 1.47 1.78 0.66 0.65 0.45 0.33 0.34 0.27 0.27 0.31 0.32 0.35 0.41 0.40 0.43 0.53 0.61 0.81 0.93 1.13 1.28 1.35 1.59 1.83 1.98 2.13 2.35 2.47 2.36 2.22 2.12 1.96 1.88 1.83 1.77 1.67 1.71 1.80 1.83 1.82 1.81 1.78 1.76 1.78 1.69
0.89 1.51 2.20 2.39 2.44 1.47 0.37 0.47 0.51 0.34 0.30 0.35 0.39 0.40 0.39 0.39 0.43 0.45 0.46 0.54 0.57 0.75 0.88 1.06 1.28 1.30 1.41 1.61 1.83 2.02 2.21 2.40 2.50 2.35 2.15 2.05 2.02 1.94 1.79 1.69 1.63 1.68 1.70 1.70 1.73 1.83 1.86 1.87 1.88
0.92 1.33 1.79 1.67 1.11 0.55 0.32 0.47 0.44 0.34 0.30 0.30 0.34 0.38 0.36 0.38 0.42 0.48 0.50 0.53 0.56 0.63 0.75 0.93 1.17 1.26 1.28 1.40 1.57 1.87 2.14 2.33 2.43 2.46 2.25 2.09 1.99 1.89 1.78 1.71 1.63 1.58 1.59 1.63 1.67 1.72 1.78 1.82 1.82
0.89 0.98 0.90 1.25 0.89 0.59 0.48 0.43 0.34 0.24 0.21 0.22 0.28 0.34 0.36 0.40 0.44 0.50 0.58 0.59 0.61 0.63 0.68 0.83 1.08 1.21 1.20 1.30 1.41 1.61 1.89 2.17 2.31 2.36 2.35 2.22 2.08 1.95 1.86 1.76 1.73 1.67 1.64 1.63 1.63 1.64 1.64 1.69 1.76
0.72 0.87 1.02 1.58 1.43 0.87 0.53 0.39 0.48 0.38 0.30 0.25 0.28 0.35 0.40 0.41 0.46 0.51 0.61 0.66 0.67 0.66 0.69 0.81 0.98 1.21 1.24 1.25 1.34 1.45 1.61 1.86 2.11 2.30 2.40 2.25 2.15 2.07 2.09 1.99 1.88 1.78 1.79 1.76 1.71 1.63 1.55 1.58 1.64
0.83 1.08 1.31 1.34 1.10 0.95 0.73 0.59 0.62 0.52 0.45 0.39 0.34 0.37 0.42 0.44 0.50 0.56 0.62 0.69 0.73 0.71 0.73 0.84 0.95 1.14 1.32 1.35 1.33 1.43 1.55 1.75 1.92 2.01 2.16 2.27 2.25 2.16 2.20 2.20 2.12 1.99 1.91 1.88 1.86 1.80 1.72 1.68 1.61
0.83 0.97 1.15 1.41 1.08 0.69 0.71 0.66 0.52 0.44 0.41 0.40 0.37 0.37 0.43 0.50 0.57 0.61 0.63 0.65 0.69 0.75 0.77 0.80 0.94 1.10 1.24 1.38 1.40 1.43 1.54 1.74 1.88 1.86 1.87 2.00 2.19 2.20 2.20 2.33 2.32 2.21 2.10 2.02 2.03 2.02 1.94 1.90 1.80